User: anonymous   Login
Location: Shades State Park
(39.9310°N, 87.0690°W)
Time: 00:55:38
(UTC-05:00)
Language:

H-2A R/B - Orbit

View from above orbital plane
View from above orbital plane
View from above satellite
View from above satellite

Ground track
Ground track

The orbit data is extracted from the following two-line orbital elements,

1 27601U 02056E   15064.24912757  .00000335  00000-0  13818-3 0  9997
2 27601 098.4598 145.6424 0071356 247.1858 184.4860 14.31544850638344
Epoch (UTC): 05 March 2015 05:58:44
Eccentricity: 0.0071356
inclination: 98.4598°
perigee height: 735 km
apogee height: 837 km
right ascension of ascending node: 145.6424°
argument of perigee: 247.1858°
revolutions per day: 14.31544850
mean anomaly at epoch: 184.4860°
orbit number at epoch: 63834

The dashed part of the orbit path shows where the satellite is in the earth's shadow,  

DLR